Tracking 19794 objects as of 21-Jul-2019
HD Live streaming from Space Station
objects crossing your sky now

FENGYUN 1C DEB

Track FENGYUN 1C DEB now!
10-day predictions


NORAD ID: 37902
Int'l Code: 1999-025ENB
Perigee: 841.8 km
Apogee: 1,363.8 km
Inclination: 98.7 °
Period: 107.2 minutes
Semi major axis: 7473 km
RCS: 0.0026 m2 (small)
Launch date: May 10, 1999
Source: People's Republic of China (PRC)
Launch site: Taiyaun Space Center, China (TSC)

Note: This is SATELLITE DEBRIS
aabbcc
Your satellite tracking list
Your tracking list is empty




NASA's NSSDC Master Catalog

Two Line Element Set (TLE):
1 37902U 99025ENB 19201.33623117 +.00000353 +00000-0 +46686-3 0  9999
2 37902 098.6993 333.4982 0349216 151.8281 210.2241 13.43664528315193
Source of the keplerian elements: AFSPC